User: anonymous   Login
Location: Cincinnati Observatory Center
(39.1389°N, 84.4225°W)
Time: 18:07:57
(UTC-05:00)
Language:

Hubble Space Telescope - Orbit

View from above orbital plane
View from above orbital plane
View from above satellite
View from above satellite

Ground track
Ground track

The orbit data is extracted from the following two-line orbital elements,

1 20580U 90037B   16037.23021039  .00001505  00000-0  83793-4 0  9996
2 20580  28.4708  49.9980 0002699 226.2484 231.4221 15.08119971215161
Epoch (UTC): 06 February 2016 05:31:30
Eccentricity: 0.0002699
inclination: 28.4708°
perigee height: 540 km
apogee height: 544 km
right ascension of ascending node: 49.9980°
argument of perigee: 226.2484°
revolutions per day: 15.08119971
mean anomaly at epoch: 231.4221°
orbit number at epoch: 21516

The dashed part of the orbit path shows where the satellite is in the earth's shadow,  

DLR